Location: Grandview
(34.8900°N, 117.1058°W)
Time: 02:37:12
(UTC-08:00)

Vanguard 2 - All Passes

Search period start: 22 January 2018 00:00
Search period end: 01 February 2018 00:00
Orbit: 553 x 2939 km, 32.9° (Epoch: 21 January)

Date Brightness Start Highest point End Pass type
(mag) Time Alt. Az. Time Alt. Az. Time Alt. Az.
22 Jan - 01:02:46 10° SSW 01:07:48 28° SE 01:15:14 10° E visible
22 Jan - 03:08:44 10° WSW 03:16:11 70° SSE 03:29:00 10° E visible
22 Jan - 05:16:43 10° W 05:26:49 81° S 05:43:04 10° E visible
22 Jan - 07:25:49 10° W 07:38:37 62° SSW 07:56:00 10° SE daylight
22 Jan - 09:37:09 10° W 09:50:21 33° SW 10:05:00 10° SSE daylight
23 Jan - 01:20:01 10° SW 01:25:27 38° SSE 01:33:58 10° E visible
23 Jan - 03:26:40 10° WSW 03:34:18 77° S 03:47:29 10° E visible
23 Jan - 05:34:49 10° W 05:45:07 77° S 06:01:29 10° ESE visible
23 Jan - 07:44:06 10° W 07:56:49 53° SSW 08:13:43 10° SE daylight
23 Jan - 09:56:28 10° W 10:08:19 25° SW 10:21:13 10° S daylight
23 Jan - 23:35:19 10° SE 23:36:04 10° SE 23:36:53 10° SE night (unlit)
24 Jan - 01:37:33 10° SW 01:43:14 49° SSE 01:52:30 10° E visible
24 Jan - 03:44:41 10° W 03:52:30 80° S 04:05:59 10° E visible
24 Jan - 05:52:56 10° W 06:03:22 71° SSW 06:19:46 10° ESE visible
24 Jan - 08:02:31 10° W 08:14:58 44° SSW 08:31:07 10° SE daylight
24 Jan - 10:16:39 10° WSW 10:26:16 18° SW 10:36:32 10° S daylight
24 Jan - 23:50:20 10° S 23:53:35 17° SE 23:57:40 10° E night (unlit)
25 Jan - 01:55:18 10° WSW 02:01:09 60° SSE 02:10:58 10° E visible
25 Jan - 04:02:44 10° W 04:10:43 81° S 04:24:28 10° E visible
25 Jan - 06:11:05 10° W 06:21:37 64° SSW 06:37:52 10° ESE visible
25 Jan - 08:21:08 10° W 08:33:05 36° SSW 08:48:08 10° SSE daylight
25 Jan - 10:39:13 10° WSW 10:44:16 12° SW 10:49:30 10° SSW daylight
26 Jan - 00:07:09 10° SSW 00:11:10 25° SE 00:16:43 10° E night (unlit)
26 Jan - 02:13:10 10° WSW 02:19:10 70° SSE 02:29:24 10° E visible
26 Jan - 04:20:47 10° W 04:28:57 78° S 04:42:55 10° ESE visible
26 Jan - 06:29:16 10° W 06:39:50 55° SSW 06:55:45 10° SE daylight
26 Jan - 08:40:08 10° W 08:51:11 28° SW 09:04:40 10° SSE daylight
27 Jan - 00:24:28 10° SW 00:28:52 35° SSE 00:35:21 10° E night (unlit)
27 Jan - 02:31:08 10° WSW 02:37:16 76° S 02:47:50 10° E visible
27 Jan - 04:38:52 10° W 04:47:10 72° S 05:01:16 10° ESE visible
27 Jan - 06:47:34 10° W 06:58:01 46° SSW 07:13:19 10° SE daylight
27 Jan - 08:59:45 10° WSW 09:09:17 21° SW 09:20:27 10° S daylight
28 Jan - 00:42:05 10° SW 00:46:42 47° SSE 00:53:48 10° E night (unlit)
28 Jan - 02:49:08 10° W 02:55:25 79° S 03:06:17 10° E visible
28 Jan - 04:56:56 10° W 05:05:22 65° SSW 05:19:28 10° ESE visible
28 Jan - 07:06:02 10° W 07:16:13 37° SSW 07:30:33 10° SSE daylight
28 Jan - 09:20:46 10° WSW 09:27:26 14° SW 09:34:48 10° SSW daylight
28 Jan - 22:54:33 10° S 22:57:09 16° SE 23:00:09 10° ESE night (unlit)
29 Jan - 00:59:52 10° WSW 01:04:39 59° SSE 01:12:11 10° E visible
29 Jan - 03:07:09 10° W 03:13:34 77° S 03:24:41 10° E visible
29 Jan - 05:15:05 10° W 05:23:34 56° SSW 05:37:27 10° SE visible
29 Jan - 07:24:49 10° W 07:34:24 29° SSW 07:47:19 10° SSE daylight
29 Jan - 23:11:29 10° SSW 23:14:52 24° SSE 23:19:05 10° E night (unlit)
30 Jan - 01:17:46 10° WSW 01:22:40 69° S 01:30:32 10° E visible
30 Jan - 03:25:11 10° W 03:31:45 72° S 03:43:02 10° ESE visible
30 Jan - 05:33:17 10° W 05:41:46 46° SSW 05:55:11 10° SE visible
30 Jan - 07:44:05 10° WSW 07:52:37 22° SSW 08:03:26 10° S daylight
30 Jan - 23:28:53 10° SW 23:32:40 34° SSE 23:37:36 10° E night (unlit)
31 Jan - 01:35:45 10° W 01:40:45 75° S 01:48:53 10° E visible
31 Jan - 03:43:14 10° W 03:49:53 65° SSW 04:01:17 10° ESE visible
31 Jan - 05:51:39 10° W 05:59:58 37° SSW 06:12:36 10° SE visible
31 Jan - 08:04:26 10° WSW 08:10:51 15° SW 08:18:23 10° S daylight
31 Jan - 23:46:34 10° SW 23:50:33 47° SSE 23:55:57 10° E night (unlit)
